Time,TemperatureF,DewpointF,PressureIn,WindDirection,WindDirectionDegrees,WindSpeedMPH,WindSpeedGustMPH,Humidity,HourlyPrecipIn,Conditions,Clouds,dailyrainin,SoftwareType,DateUTC
2013-04-18 00:01:00,46.1,40.0,30.42,South,179,0.0,2.0,78,0.00,,,0.00,weatherlink.com 1.10,2013-04-18 07:01:00,
2013-04-18 00:16:00,46.2,39.0,30.43,South,179,0.0,2.0,77,0.00,,,0.00,weatherlink.com 1.10,2013-04-18 07:16:00,
2013-04-18 00:31:00,46.3,39.0,30.42,South,179,0.0,0.0,77,0.00,,,0.00,weatherlink.com 1.10,2013-04-18 07:31:00,
2013-04-18 00:46:00,46.1,40.0,30.43,West,280,2.0,4.0,80,0.00,,,0.00,weatherlink.com 1.10,2013-04-18 07:46:00,
2013-04-18 01:01:00,45.8,41.0,30.43,West,260,2.0,5.0,82,0.00,,,0.00,weatherlink.com 1.10,2013-04-18 08:01:00,
2013-04-18 01:16:00,45.0,41.0,30.43,WSW,258,0.0,4.0,85,0.00,,,0.00,weatherlink.com 1.10,2013-04-18 08:16:00,
2013-04-18 01:31:00,44.5,41.0,30.43,WSW,258,0.0,3.0,88,0.00,,,0.00,weatherlink.com 1.10,2013-04-18 08:31:00,
2013-04-18 01:46:00,44.2,41.0,30.43,WSW,258,0.0,1.0,89,0.00,,,0.00,weatherlink.com 1.10,2013-04-18 08:46:00,
2013-04-18 02:01:00,44.0,41.0,30.43,West,262,1.0,5.0,90,0.00,,,0.00,weatherlink.com 1.10,2013-04-18 09:01:00,
2013-04-18 02:31:00,43.8,41.0,30.43,West,264,0.0,2.0,91,0.00,,,0.00,weatherlink.com 1.10,2013-04-18 09:31:00,
2013-04-18 02:46:00,43.7,42.0,30.43,West,264,0.0,2.0,92,0.00,,,0.00,weatherlink.com 1.10,2013-04-18 09:46:00,
2013-04-18 03:01:00,43.6,42.0,30.43,West,264,0.0,3.0,92,0.00,,,0.00,weatherlink.com 1.10,2013-04-18 10:01:00,
2013-04-18 03:16:00,43.6,42.0,30.43,West,264,0.0,0.0,92,0.00,,,0.00,weatherlink.com 1.10,2013-04-18 10:16:00,
2013-04-18 03:31:00,43.5,41.0,30.43,West,264,0.0,1.0,92,0.01,,,0.01,weatherlink.com 1.10,2013-04-18 10:31:00,
2013-04-18 04:01:00,43.3,42.0,30.43,West,264,0.0,0.0,93,0.01,,,0.01,weatherlink.com 1.10,2013-04-18 11:01:00,
2013-04-18 04:16:00,43.2,42.0,30.43,West,264,0.0,2.0,94,0.01,,,0.01,weatherlink.com 1.10,2013-04-18 11:16:00,
2013-04-18 04:31:00,43.2,42.0,30.43,West,264,0.0,1.0,94,0.00,,,0.01,weatherlink.com 1.10,2013-04-18 11:31:00,
2013-04-18 04:46:00,43.2,42.0,30.43,West,263,0.0,0.0,94,0.00,,,0.01,weatherlink.com 1.10,2013-04-18 11:46:00,
2013-04-18 05:01:00,43.2,42.0,30.43,West,264,0.0,0.0,94,0.00,,,0.01,weatherlink.com 1.10,2013-04-18 12:01:00,
2013-04-18 05:16:00,43.1,42.0,30.43,West,264,0.0,0.0,94,0.00,,,0.01,weatherlink.com 1.10,2013-04-18 12:16:00,
2013-04-18 05:31:00,43.1,42.0,30.43,West,263,1.0,1.0,95,0.00,,,0.01,weatherlink.com 1.10,2013-04-18 12:31:00,
2013-04-18 05:46:00,43.2,42.0,30.43,West,263,0.0,2.0,94,0.00,,,0.01,weatherlink.com 1.10,2013-04-18 12:46:00,
2013-04-18 06:01:00,43.2,42.0,30.43,West,263,0.0,1.0,94,0.01,,,0.02,weatherlink.com 1.10,2013-04-18 13:01:00,
2013-04-18 06:16:00,43.1,42.0,30.43,SW,215,0.0,3.0,94,0.01,,,0.02,weatherlink.com 1.10,2013-04-18 13:16:00,
2013-04-18 06:31:00,43.1,42.0,30.43,SW,215,0.0,2.0,94,0.01,,,0.02,weatherlink.com 1.10,2013-04-18 13:31:00,
2013-04-18 06:46:00,43.2,42.0,30.43,SSW,208,2.0,3.0,95,0.01,,,0.02,weatherlink.com 1.10,2013-04-18 13:46:00,
2013-04-18 07:01:00,43.2,42.0,30.43,SSW,204,0.0,4.0,95,0.00,,,0.02,weatherlink.com 1.10,2013-04-18 14:01:00,
2013-04-18 07:16:00,43.3,42.0,30.44,SSW,200,0.0,3.0,95,0.00,,,0.02,weatherlink.com 1.10,2013-04-18 14:16:00,
2013-04-18 07:31:00,43.4,42.0,30.43,SSW,200,0.0,2.0,95,0.00,,,0.02,weatherlink.com 1.10,2013-04-18 14:31:00,
2013-04-18 07:47:00,43.6,42.0,30.43,SSW,200,1.0,3.0,95,0.00,,,0.02,weatherlink.com 1.10,2013-04-18 14:47:00,
2013-04-18 08:02:00,43.7,42.0,30.44,SSW,210,2.0,3.0,95,0.00,,,0.02,weatherlink.com 1.10,2013-04-18 15:02:00,
2013-04-18 08:17:00,43.7,42.0,30.44,SW,233,4.0,6.0,95,0.00,,,0.02,weatherlink.com 1.10,2013-04-18 15:17:00,
2013-04-18 08:32:00,43.7,42.0,30.44,South,184,2.0,8.0,95,0.00,,,0.02,weatherlink.com 1.10,2013-04-18 15:32:00,
2013-04-18 08:47:00,43.8,43.0,30.44,SW,222,0.0,7.0,95,0.00,,,0.02,weatherlink.com 1.10,2013-04-18 15:47:00,
2013-04-18 09:02:00,44.0,43.0,30.44,WSW,244,1.0,6.0,95,0.01,,,0.03,weatherlink.com 1.10,2013-04-18 16:02:00,
2013-04-18 09:17:00,44.3,43.0,30.44,SW,223,5.0,6.0,96,0.01,,,0.03,weatherlink.com 1.10,2013-04-18 16:17:00,
2013-04-18 09:32:00,44.9,44.0,30.44,SW,236,4.0,5.0,96,0.01,,,0.03,weatherlink.com 1.10,2013-04-18 16:32:00,
2013-04-18 09:47:00,45.2,44.0,30.43,ESE,115,7.0,8.0,96,0.01,,,0.03,weatherlink.com 1.10,2013-04-18 16:47:00,
2013-04-18 10:02:00,45.7,44.0,30.43,SE,133,2.0,10.0,95,0.00,,,0.03,weatherlink.com 1.10,2013-04-18 17:02:00,
2013-04-18 10:17:00,45.6,44.0,30.44,East,88,7.0,10.0,94,0.00,,,0.03,weatherlink.com 1.10,2013-04-18 17:17:00,
2013-04-18 10:32:00,46.0,44.0,30.43,ESE,104,4.0,10.0,93,0.00,,,0.03,weatherlink.com 1.10,2013-04-18 17:32:00,
2013-04-18 11:02:00,46.6,44.0,30.43,East,80,6.0,14.0,90,0.00,,,0.03,weatherlink.com 1.10,2013-04-18 18:02:00,
2013-04-18 11:17:00,46.8,44.0,30.43,East,95,2.0,10.0,90,0.00,,,0.03,weatherlink.com 1.10,2013-04-18 18:17:00,
2013-04-18 11:32:00,47.0,44.0,30.43,East,83,6.0,14.0,88,0.00,,,0.03,weatherlink.com 1.10,2013-04-18 18:32:00,
2013-04-18 11:47:00,47.2,44.0,30.43,East,97,8.0,14.0,88,0.00,,,0.03,weatherlink.com 1.10,2013-04-18 18:47:00,
2013-04-18 12:02:00,47.4,44.0,30.42,ESE,110,9.0,14.0,87,0.00,,,0.03,weatherlink.com 1.10,2013-04-18 19:02:00,
2013-04-18 12:17:00,47.4,44.0,30.41,East,89,10.0,15.0,87,0.00,,,0.03,weatherlink.com 1.10,2013-04-18 19:17:00,
2013-04-18 12:32:00,47.5,44.0,30.41,ESE,109,8.0,14.0,86,0.00,,,0.03,weatherlink.com 1.10,2013-04-18 19:32:00,
2013-04-18 12:47:00,47.4,44.0,30.40,East,89,11.0,13.0,88,0.00,,,0.03,weatherlink.com 1.10,2013-04-18 19:47:00,
2013-04-18 13:02:00,47.3,44.0,30.40,East,79,7.0,14.0,87,0.00,,,0.03,weatherlink.com 1.10,2013-04-18 20:02:00,
2013-04-18 13:17:00,47.3,44.0,30.40,East,97,5.0,11.0,88,0.00,,,0.03,weatherlink.com 1.10,2013-04-18 20:17:00,
2013-04-18 13:32:00,47.3,43.0,30.40,ENE,66,8.0,10.0,86,0.00,,,0.03,weatherlink.com 1.10,2013-04-18 20:32:00,
2013-04-18 13:47:00,47.7,44.0,30.39,ESE,102,7.0,9.0,87,0.00,,,0.03,weatherlink.com 1.10,2013-04-18 20:47:00,
2013-04-18 14:02:00,47.6,44.0,30.39,East,98,1.0,14.0,88,0.00,,,0.03,weatherlink.com 1.10,2013-04-18 21:02:00,
2013-04-18 14:17:00,47.6,45.0,30.38,East,81,5.0,13.0,90,0.01,,,0.04,weatherlink.com 1.10,2013-04-18 21:17:00,
2013-04-18 14:32:00,47.3,45.0,30.38,East,93,5.0,14.0,91,0.01,,,0.04,weatherlink.com 1.10,2013-04-18 21:32:00,
2013-04-18 15:02:00,47.2,45.0,30.37,East,83,8.0,10.0,92,0.02,,,0.05,weatherlink.com 1.10,2013-04-18 22:02:00,
2013-04-18 15:17:00,47.0,45.0,30.37,East,95,6.0,9.0,92,0.01,,,0.05,weatherlink.com 1.10,2013-04-18 22:17:00,
2013-04-18 15:32:00,46.9,45.0,30.37,East,93,6.0,9.0,93,0.02,,,0.06,weatherlink.com 1.10,2013-04-18 22:32:00,
2013-04-18 15:47:00,46.6,45.0,30.36,ESE,104,4.0,10.0,93,0.03,,,0.07,weatherlink.com 1.10,2013-04-18 22:47:00,
2013-04-18 16:02:00,46.7,45.0,30.36,East,101,4.0,8.0,94,0.03,,,0.08,weatherlink.com 1.10,2013-04-18 23:02:00,
2013-04-18 16:17:00,46.8,45.0,30.35,ESE,104,5.0,8.0,94,0.04,,,0.09,weatherlink.com 1.10,2013-04-18 23:17:00,
2013-04-18 16:33:00,46.8,45.0,30.35,ESE,106,3.0,8.0,94,0.03,,,0.09,weatherlink.com 1.10,2013-04-18 23:33:00,
2013-04-18 16:48:00,46.6,45.0,30.33,ESE,117,4.0,11.0,94,0.02,,,0.09,weatherlink.com 1.10,2013-04-18 23:48:00,
2013-04-18 17:03:00,46.5,45.0,30.32,East,79,5.0,10.0,95,0.02,,,0.10,weatherlink.com 1.10,2013-04-19 00:03:00,
2013-04-18 17:18:00,46.6,45.0,30.32,East,92,6.0,11.0,95,0.01,,,0.10,weatherlink.com 1.10,2013-04-19 00:18:00,
2013-04-18 17:33:00,46.4,45.0,30.31,ENE,68,4.0,14.0,95,0.01,,,0.10,weatherlink.com 1.10,2013-04-19 00:33:00,
2013-04-18 17:48:00,46.5,45.0,30.31,East,80,6.0,10.0,95,0.00,,,0.10,weatherlink.com 1.10,2013-04-19 00:48:00,
2013-04-18 18:03:00,46.5,45.0,30.31,ESE,102,4.0,12.0,95,0.00,,,0.10,weatherlink.com 1.10,2013-04-19 01:03:00,
2013-04-18 18:18:00,46.6,45.0,30.30,East,88,8.0,13.0,95,0.00,,,0.10,weatherlink.com 1.10,2013-04-19 01:18:00,
2013-04-18 18:33:00,46.7,45.0,30.29,East,99,8.0,12.0,94,0.00,,,0.10,weatherlink.com 1.10,2013-04-19 01:33:00,
2013-04-18 18:48:00,46.8,46.0,30.28,East,99,8.0,13.0,95,0.00,,,0.10,weatherlink.com 1.10,2013-04-19 01:48:00,
2013-04-18 19:03:00,46.7,45.0,30.28,ESE,108,8.0,10.0,95,0.00,,,0.10,weatherlink.com 1.10,2013-04-19 02:03:00,
2013-04-18 19:18:00,46.7,45.0,30.27,ENE,75,8.0,14.0,95,0.00,,,0.10,weatherlink.com 1.10,2013-04-19 02:18:00,
2013-04-18 19:33:00,46.8,46.0,30.27,SE,124,9.0,13.0,95,0.00,,,0.10,weatherlink.com 1.10,2013-04-19 02:33:00,
2013-04-18 19:48:00,46.8,46.0,30.26,ESE,106,8.0,14.0,95,0.00,,,0.10,weatherlink.com 1.10,2013-04-19 02:48:00,
2013-04-18 20:03:00,46.9,46.0,30.26,East,99,11.0,17.0,95,0.00,,,0.10,weatherlink.com 1.10,2013-04-19 03:03:00,
2013-04-18 20:18:00,46.9,46.0,30.25,East,92,5.0,11.0,96,0.00,,,0.10,weatherlink.com 1.10,2013-04-19 03:18:00,
2013-04-18 20:33:00,47.0,46.0,30.25,ESE,107,7.0,11.0,96,0.00,,,0.10,weatherlink.com 1.10,2013-04-19 03:33:00,
2013-04-18 20:48:00,47.1,46.0,30.25,ENE,77,3.0,13.0,96,0.00,,,0.10,weatherlink.com 1.10,2013-04-19 03:48:00,
2013-04-18 21:03:00,47.2,46.0,30.24,ENE,64,10.0,10.0,96,0.00,,,0.10,weatherlink.com 1.10,2013-04-19 04:03:00,
2013-04-18 21:18:00,47.4,46.0,30.24,ESE,106,8.0,13.0,96,0.00,,,0.10,weatherlink.com 1.10,2013-04-19 04:18:00,
2013-04-18 21:33:00,47.6,47.0,30.23,East,90,8.0,13.0,96,0.00,,,0.10,weatherlink.com 1.10,2013-04-19 04:33:00,
2013-04-18 21:48:00,47.9,47.0,30.23,ENE,77,9.0,14.0,96,0.00,,,0.10,weatherlink.com 1.10,2013-04-19 04:48:00,
2013-04-18 22:03:00,48.1,47.0,30.22,ENE,71,7.0,15.0,96,0.00,,,0.10,weatherlink.com 1.10,2013-04-19 05:03:00,
2013-04-18 22:18:00,48.3,47.0,30.21,East,90,9.0,16.0,96,0.00,,,0.10,weatherlink.com 1.10,2013-04-19 05:18:00,
2013-04-18 22:33:00,48.5,48.0,30.20,ESE,114,7.0,17.0,96,0.00,,,0.10,weatherlink.com 1.10,2013-04-19 05:33:00,
2013-04-18 22:48:00,48.6,47.0,30.20,ENE,72,8.0,15.0,95,0.00,,,0.10,weatherlink.com 1.10,2013-04-19 05:48:00,
2013-04-18 23:03:00,48.7,47.0,30.19,ESE,109,9.0,19.0,95,0.00,,,0.10,weatherlink.com 1.10,2013-04-19 06:03:00,
2013-04-18 23:18:00,48.7,47.0,30.18,East,95,7.0,14.0,95,0.00,,,0.10,weatherlink.com 1.10,2013-04-19 06:18:00,
2013-04-18 23:33:00,48.7,47.0,30.18,East,87,10.0,13.0,94,0.00,,,0.10,weatherlink.com 1.10,2013-04-19 06:33:00,
2013-04-18 23:48:00,48.7,47.0,30.18,South,185,2.0,7.0,94,0.00,,,0.10,weatherlink.com 1.10,2013-04-19 06:48:00,